DW5676 Seminole FL US current weather conditions

sailwx.info

Wind from 274

Air temperature 18.3° C
Dewpoint 15.9° C

Last reported at 2019-Nov-18 23:01 UTC.
Time now 2019-Nov-19 00:03 UTC

Location: N 27°52' W 082°48'.
View on Google Maps.

See reports from other nearby stations

  
Tides and Currents Weather Stations Pressure Air Temp Water Temp Dewpoint Dewpoint Depression Visibility Wind Speed Wind Dir Waves Ship Positions
date/time (UTC)wind fromknots sea level pressurealtimeterstation pressurevisibilityair tempwater tempwave heightnotes
2019-Nov-18 23:01 274 18.3
2019-Nov-18 22:46 274 18.3
2019-Nov-18 22:00 274 19.4
2019-Nov-18 21:30 273 20.0
2019-Nov-18 21:15 274 20.6
2019-Nov-18 20:45 024 21.1
2019-Nov-18 20:01 262 22.2
2019-Nov-18 19:46 265 0 gusting 5 22.2
2019-Nov-18 19:30 301 21.7
2019-Nov-18 19:15 264 0 gusting 2 22.2
2019-Nov-18 18:45 012 0 gusting 6 21.7
2019-Nov-18 18:31 288 21.7
2019-Nov-18 18:15 347 21.7
2019-Nov-18 17:30 327 0 gusting 2 21.7
2019-Nov-18 16:45 266 0 gusting 2 21.1
2019-Nov-18 16:15 275 0 gusting 2 20.6
2019-Nov-18 16:01 221 20.0
2019-Nov-18 15:47 221 0 gusting 2 19.4
2019-Nov-18 15:31 008 18.9
2019-Nov-18 15:17 036 0 gusting 3 18.9
2019-Nov-18 15:02 198 0 gusting 2 18.3
2019-Nov-18 14:46 240 17.8
2019-Nov-18 14:31 216 17.8
2019-Nov-18 14:16 187 16.7
2019-Nov-18 14:01 187 0 gusting 1 15.6
2019-Nov-18 13:45 185 0 gusting 1 15.0
2019-Nov-18 13:31 186 13.9
2019-Nov-18 13:16 186 12.8
2019-Nov-18 12:00 129 11.1
2019-Nov-18 11:30 129 11.1
2019-Nov-18 11:15 129 11.7
2019-Nov-18 11:02 129 11.7
2019-Nov-18 10:46 129 11.7
2019-Nov-18 10:31 129 11.7
2019-Nov-18 10:17 129 11.7
2019-Nov-18 10:01 129 12.2
2019-Nov-18 09:47 129 12.2
2019-Nov-18 09:32 129 12.8
2019-Nov-18 09:17 131 12.8
2019-Nov-18 09:01 135 12.2
2019-Nov-18 08:47 144 0 gusting 1 12.2
2019-Nov-18 08:31 148 12.2
2019-Nov-18 08:16 123 12.2
2019-Nov-18 08:01 047 0 gusting 2 12.2
2019-Nov-18 07:46 043 11.7
2019-Nov-18 07:31 223 11.7
2019-Nov-18 07:16 190 11.7
2019-Nov-18 07:01 226 11.7
2019-Nov-18 06:46 046 11.7
2019-Nov-18 06:30 089 11.7
2019-Nov-18 06:15 089 11.7
2019-Nov-18 06:01 089 0 gusting 2 11.7
2019-Nov-18 05:46 117 11.7
2019-Nov-18 05:31 064 11.1
2019-Nov-18 05:16 021 0 gusting 3 11.1
2019-Nov-18 05:01 063 0 gusting 2 11.1
2019-Nov-18 04:45 085 11.1
2019-Nov-18 04:30 085 0 gusting 2 11.1
2019-Nov-18 04:16 087 0 gusting 4 11.1
2019-Nov-18 04:00 064 1 gusting 5 11.7
2019-Nov-18 03:45 098 0 gusting 4 11.7
2019-Nov-18 03:30 051 1 gusting 4 11.7
2019-Nov-18 03:15 052 2 gusting 5 11.7
2019-Nov-18 02:46 056 1 gusting 4 12.2
2019-Nov-18 02:30 029 0 gusting 2 12.2
2019-Nov-18 02:15 025 1 gusting 3 12.2
2019-Nov-18 02:00 032 1 gusting 4 12.2
2019-Nov-18 01:45 019 12.2
2019-Nov-18 01:30 319 0 gusting 2 12.2
2019-Nov-18 01:15 021 1 gusting 6 12.2
2019-Nov-18 01:00 358 0 gusting 4 12.2
2019-Nov-18 00:45 039 1 gusting 4 12.2
2019-Nov-18 00:30 346 0 gusting 2 12.2
2019-Nov-18 00:15 024 0 gusting 5 12.2
2019-Nov-18 00:00 014 1 gusting 5 12.2
2019-Nov-17 23:45 331 0 gusting 2 12.2
2019-Nov-17 23:15 355 0 gusting 4 12.8
2019-Nov-17 23:00 012 0 gusting 4 12.8
2019-Nov-17 22:30 211 12.8
2019-Nov-17 22:16 342 0 gusting 5 13.3
2019-Nov-17 22:02 341 0 gusting 2 12.8
2019-Nov-17 21:46 339 0 gusting 4 12.8
2019-Nov-17 21:31 312 12.8
2019-Nov-17 21:16 337 12.8
2019-Nov-17 21:00 347 1 gusting 4 13.3
2019-Nov-17 20:45 338 0 gusting 5 12.8
2019-Nov-17 20:15 083 0 gusting 3 12.8
2019-Nov-17 19:30 311 12.8
2019-Nov-17 19:00 360 0 gusting 2 12.8
2019-Nov-17 18:45 016 0 gusting 3 12.8
2019-Nov-17 18:15 329 1 gusting 3 13.3
2019-Nov-17 17:30 020 13.3
2019-Nov-17 17:00 300 13.3
2019-Nov-17 16:45 341 13.3
2019-Nov-17 16:15 014 12.8
2019-Nov-17 15:30 293 1 gusting 5 12.2
2019-Nov-17 15:00 343 1 gusting 6 12.2
2019-Nov-17 14:45 027 0 gusting 4 11.7
2019-Nov-17 14:30 016 0 gusting 5 11.7
2019-Nov-17 14:15 001 0 gusting 6 11.7
2019-Nov-17 14:00 008 0 gusting 4 11.1
2019-Nov-17 13:45 331 1 gusting 6 11.1
2019-Nov-17 13:32 043 2 gusting 4 11.1
2019-Nov-17 13:15 329 1 gusting 5 11.1
2019-Nov-17 13:00 036 11.1
2019-Nov-17 12:45 338 0 gusting 3 10.6
2019-Nov-17 12:30 341 0 gusting 4 10.6
2019-Nov-17 12:15 019 1 gusting 6 10.6
2019-Nov-17 12:00 331 0 gusting 3 10.6
2019-Nov-17 11:45 023 0 gusting 4 10.6
2019-Nov-17 11:30 025 0 gusting 6 10.6
2019-Nov-17 11:15 021 1 gusting 5 10.6
2019-Nov-17 11:00 013 1 gusting 3 10.6
2019-Nov-17 10:45 020 1 gusting 3 10.6
2019-Nov-17 10:30 036 0 gusting 3 10.6
2019-Nov-17 10:15 334 1 gusting 5 10.6
2019-Nov-17 10:00 043 10.6
2019-Nov-17 09:45 039 0 gusting 3 10.6
2019-Nov-17 09:30 032 0 gusting 4 10.6
2019-Nov-17 09:01 017 1 gusting 2 10.6
2019-Nov-17 08:47 333 0 gusting 4 10.6
2019-Nov-17 08:31 010 0 gusting 4 10.6
2019-Nov-17 08:15 017 0 gusting 3 10.6
2019-Nov-17 08:01 013 0 gusting 2 10.6
2019-Nov-17 07:46 027 1 gusting 3 10.6
2019-Nov-17 07:31 012 10.6
2019-Nov-17 07:15 035 0 gusting 2 10.0
2019-Nov-17 07:01 062 1 gusting 5 10.0
2019-Nov-17 06:47 048 1 gusting 5 10.0
2019-Nov-17 06:30 029 0 gusting 4 10.6
2019-Nov-17 06:16 023 1 gusting 6 10.6
2019-Nov-17 06:00 005 1 gusting 6 10.6
2019-Nov-17 05:46 024 0 gusting 4 10.6
2019-Nov-17 05:30 333 1 gusting 6 10.6
2019-Nov-17 05:15 004 2 gusting 6 10.6
2019-Nov-17 05:00 329 0 gusting 8 10.6
2019-Nov-17 04:45 349 1 gusting 6 10.6
2019-Nov-17 04:30 340 0 gusting 6 10.6
2019-Nov-17 04:15 358 0 gusting 6 10.6
2019-Nov-17 04:00 028 1 gusting 5 11.1
2019-Nov-17 03:45 357 3 gusting 6 11.1
2019-Nov-17 03:32 043 3 gusting 7 11.1
2019-Nov-17 03:16 004 1 gusting 6 11.1
2019-Nov-17 03:02 360 2 gusting 8 11.7
2019-Nov-17 02:47 005 2 gusting 8 11.7
2019-Nov-17 02:31 310 1 gusting 8 12.2
2019-Nov-17 02:16 350 2 gusting 9 12.2
2019-Nov-17 02:01 353 1 gusting 8 12.8
2019-Nov-17 01:48 036 1 gusting 8 12.8
2019-Nov-17 01:31 021 2 gusting 9 12.8
2019-Nov-17 01:15 322 3 gusting 9 12.8